Flag for Germany Weather past 2 weeks in Kaufbeuren, Bavaria, Germany

Now
52 °F

Cool.


Feels Like: 51 °F
Forecast: 44 / 64 °F
Wind: 3 mph from Southwest

Location: Altenstadt Airport

Current Time: Oct 2, 2014 at 1:13:37 AM

Latest Report: Oct 2, 2014 at 12:20 AM


Visibility: N/A

Pressure: 30.36 "Hg

Humidity: 100%

Dew point: 52 °F

Location of KaufbeurenLocation

Historic Weather in Kaufbeuren — Graph

°F

Kaufbeuren temperature yesterday

Maximum temperature yesterday: 61 °F (at 2:20 PM)
Minimum temperature yesterday: 54 °F (at 10:20 PM)
Average temperature yesterday: 56 °F

Past Weeks' High & Low Weather Summary

 TemperatureHumidityPressure
High73 °F (Sep 18, 2:20 PM)100% (Sep 16, 11:20 PM)30.39 "Hg (Sep 16, 11:20 PM)
Low34 °F (Sep 24, 6:20 AM)47% (Sep 18, 2:20 PM)29.92 "Hg (Sep 17, 4:20 PM)
Average55 °F88%30.15 "Hg
* Reported Sep 16 11:20 PM — Oct 1 11:20 PM, Kaufbeuren, Weather by CustomWeather, © 2014

Note: Actual official high and low records may vary slightly from our data, if they occured in-between our weather recording intervals... More about our weather records

Advertising

Kaufbeuren weather history for previous 24 hours

 ConditionsComfort  
Time TempWeatherWind HumidityBarometerVisibility
11:20 PM
Oct 1
54 °FCool.3 mph94%30.39 "HgN/A
10:20 PM54 °FCool.3 mph100%30.39 "HgN/A
9:20 PM55 °FCool.3 mph94%30.36 "HgN/A
8:20 PM55 °FThundershowers. Partly cloudy.3 mph94%30.36 "HgN/A
7:20 PM57 °FSprinkles. Scattered clouds.5 mph94%30.33 "HgN/A
6:20 PM59 °FFog.5 mph94%30.33 "HgN/A
5:20 PM61 °FPassing clouds.5 mph88%30.33 "HgN/A
4:20 PM61 °FScattered clouds.5 mph88%30.33 "HgN/A
3:20 PM59 °FSprinkles. Partly sunny.3 mph94%30.33 "HgN/A
2:20 PM61 °FScattered showers. Partly sunny.2 mph88%30.33 "Hg6 mi
1:20 PM57 °FLight rain. Broken clouds.1 mph94%30.33 "Hg6 mi
12:57 PM55 °FDrizzle. Partly sunny.1 mph100%30.36 "Hg4 mi
12:20 PM55 °FRain. Fog.2 mph100%30.33 "Hg2 mi
11:20 AM55 °FRain. Fog.7 mph100%30.33 "Hg2 mi
11:04 AM55 °FRain. Fog.5 mph100%30.33 "Hg2 mi
10:20 AM55 °FLight rain. Partly sunny.2 mph100%30.33 "Hg4 mi
9:20 AM55 °FLight rain. Fog.2 mph100%30.33 "Hg2 mi
8:20 AM55 °FRain. Fog.2 mph100%30.30 "Hg0 mi
7:20 AM55 °FRain. Fog.1 mph100%30.30 "Hg1 mi
6:20 AM55 °FRain. Fog.2 mph100%30.30 "Hg1 mi
5:20 AM55 °FRain. Fog.1 mph100%30.30 "Hg1 mi
4:20 AM55 °FCool.3 mph100%30.33 "HgN/A
3:20 AM55 °FCool.2 mph100%30.33 "HgN/A
2:20 AM55 °FCool.2 mph100%30.33 "HgN/A
1:20 AM55 °FCool.2 mph100%30.33 "HgN/A
Weather by CustomWeather, © 2014

See weather overviewHow to use our weather pages